Location: La Brionne
(46.1728°N, 1.7849°E)
Time: 12:05:06
(UTC+00:00)

USA 267 - Pass Details

Date: 29 October 2021
Orbit: 1101 x 1107 km, 123.0° (Epoch: 25 November)

Event Time Altitude Azimuth Distance (km) Brightness Sun altitude
Exits shadow 17:49:11 - 116° (ESE) 3,089 5.1 -12.0°
Reaches altitude 10° 17:49:32 10° 116° (ESE) 2,954 5.0 -12.1°
Maximum altitude 17:56:02 75° 33° (NNE) 1,141 3.2 -13.2°
Drops below altitude 10° 18:02:34 10° 309° (NW) 2,964 6.2 -14.3°
Sets 18:05:03 0° 308° (NW) 3,924 6.9 -14.7°
